Time,TemperatureF,DewpointF,PressureIn,WindDirection,WindDirectionDegrees,WindSpeedMPH,WindSpeedGustMPH,Humidity,HourlyPrecipIn,Conditions,Clouds,dailyrainin,SoftwareType,DateUTC
2013-04-03 00:03:00,47.0,26.0,30.11,SSE,161,0.0,0.0,44,0.00,,,0.00,,2013-04-03 04:03:00,
2013-04-03 00:13:00,47.0,26.0,30.11,SSE,161,0.0,0.0,44,0.00,,,0.00,,2013-04-03 04:13:00,
2013-04-03 00:23:00,47.0,26.0,30.11,SSE,161,0.0,0.0,44,0.00,,,0.00,,2013-04-03 04:23:00,
2013-04-03 00:33:00,47.0,25.0,30.11,ESE,109,0.0,2.0,42,0.00,,,0.00,,2013-04-03 04:33:00,
2013-04-03 00:43:00,47.0,25.0,30.11,ESE,109,0.0,2.0,42,0.00,,,0.00,,2013-04-03 04:43:00,
2013-04-03 00:53:00,47.0,28.0,30.11,ESE,109,0.0,0.0,48,0.00,,,0.00,,2013-04-03 04:53:00,
2013-04-03 01:02:00,46.0,25.0,30.11,SSW,201,0.0,1.0,44,0.00,,,0.00,,2013-04-03 05:02:00,
2013-04-03 01:12:00,46.0,25.0,30.11,SSW,201,0.0,1.0,44,0.00,,,0.00,,2013-04-03 05:12:00,
2013-04-03 01:22:00,46.0,26.0,30.11,WSW,250,0.0,2.0,46,0.00,,,0.00,,2013-04-03 05:22:00,
2013-04-03 01:32:00,46.0,28.0,30.11,South,185,0.0,2.0,49,0.00,,,0.00,,2013-04-03 05:32:00,
2013-04-03 01:42:00,46.0,28.0,30.11,South,185,0.0,2.0,49,0.00,,,0.00,,2013-04-03 05:42:00,
2013-04-03 01:53:00,46.0,29.0,30.11,South,185,0.0,0.0,51,0.00,,,0.00,,2013-04-03 05:53:00,
2013-04-03 02:02:00,45.0,28.0,30.10,South,172,0.0,1.0,51,0.00,,,0.00,,2013-04-03 06:02:00,
2013-04-03 02:12:00,45.0,28.0,30.10,South,172,0.0,1.0,51,0.00,,,0.00,,2013-04-03 06:12:00,
2013-04-03 02:22:00,45.0,28.0,30.10,South,175,0.0,1.0,51,0.00,,,0.00,,2013-04-03 06:22:00,
2013-04-03 02:32:00,45.0,29.0,30.09,South,185,0.0,2.0,53,0.00,,,0.00,,2013-04-03 06:32:00,
2013-04-03 02:42:00,45.0,29.0,30.09,South,185,0.0,2.0,53,0.00,,,0.00,,2013-04-03 06:42:00,
2013-04-03 02:52:00,45.0,29.0,30.09,NE,40,0.0,3.0,54,0.00,,,0.00,,2013-04-03 06:52:00,
2013-04-03 03:02:00,44.0,28.0,30.09,NE,40,0.0,2.0,53,0.00,,,0.00,,2013-04-03 07:02:00,
2013-04-03 03:12:00,44.0,28.0,30.09,NE,40,0.0,2.0,53,0.00,,,0.00,,2013-04-03 07:12:00,
2013-04-03 03:23:00,44.0,28.0,30.09,NNW,333,0.0,1.0,53,0.00,,,0.00,,2013-04-03 07:23:00,
2013-04-03 03:33:00,44.0,28.0,30.09,NNW,331,0.0,1.0,52,0.00,,,0.00,,2013-04-03 07:33:00,
2013-04-03 03:42:00,44.0,28.0,30.09,NNW,331,0.0,1.0,52,0.00,,,0.00,,2013-04-03 07:42:00,
2013-04-03 03:53:00,43.0,27.0,30.09,NNW,342,0.0,2.0,53,0.00,,,0.00,,2013-04-03 07:53:00,
2013-04-03 04:03:00,43.0,28.0,30.08,NNW,342,0.0,0.0,55,0.00,,,0.00,,2013-04-03 08:03:00,
2013-04-03 04:12:00,43.0,28.0,30.08,NNW,342,0.0,0.0,55,0.00,,,0.00,,2013-04-03 08:12:00,
2013-04-03 04:22:00,43.0,27.0,30.08,NNW,345,0.0,1.0,52,0.00,,,0.00,,2013-04-03 08:22:00,
2013-04-03 04:32:00,42.0,28.0,30.07,NNW,345,0.0,0.0,57,0.00,,,0.00,,2013-04-03 08:32:00,
2013-04-03 04:42:00,42.0,28.0,30.07,NNW,345,0.0,0.0,57,0.00,,,0.00,,2013-04-03 08:42:00,
2013-04-03 04:52:00,41.0,27.0,30.06,NNW,345,0.0,0.0,57,0.00,,,0.00,,2013-04-03 08:52:00,
2013-04-03 05:02:00,40.0,26.0,30.06,NNW,345,0.0,0.0,58,0.00,,,0.00,,2013-04-03 09:02:00,
2013-04-03 05:12:00,40.0,26.0,30.06,NNW,345,0.0,0.0,58,0.00,,,0.00,,2013-04-03 09:12:00,
2013-04-03 05:22:00,39.0,28.0,30.06,NNW,345,0.0,0.0,64,0.00,,,0.00,,2013-04-03 09:22:00,
2013-04-03 05:33:00,39.0,29.0,30.06,NNW,345,0.0,0.0,66,0.00,,,0.00,,2013-04-03 09:33:00,
2013-04-03 05:43:00,39.0,29.0,30.06,NNW,345,0.0,0.0,66,0.00,,,0.00,,2013-04-03 09:43:00,
2013-04-03 05:53:00,39.0,29.0,30.06,NNW,345,0.0,0.0,66,0.00,,,0.00,,2013-04-03 09:53:00,
2013-04-03 06:03:00,39.0,27.0,30.06,NNW,345,0.0,0.0,62,0.00,,,0.00,,2013-04-03 10:03:00,
2013-04-03 06:12:00,39.0,27.0,30.06,NNW,345,0.0,0.0,62,0.00,,,0.00,,2013-04-03 10:12:00,
2013-04-03 06:22:00,38.0,28.0,30.07,NNW,345,0.0,0.0,66,0.00,,,0.00,,2013-04-03 10:22:00,
2013-04-03 06:33:00,38.0,28.0,30.07,NNW,345,0.0,0.0,68,0.00,,,0.00,,2013-04-03 10:33:00,
2013-04-03 06:43:00,38.0,28.0,30.07,NNW,345,0.0,0.0,68,0.00,,,0.00,,2013-04-03 10:43:00,
2013-04-03 06:53:00,38.0,29.0,30.08,NNW,345,0.0,0.0,69,0.00,,,0.00,,2013-04-03 10:53:00,
2013-04-03 07:02:00,38.0,28.0,30.09,NNW,345,0.0,0.0,68,0.00,,,0.00,,2013-04-03 11:02:00,
2013-04-03 07:12:00,38.0,28.0,30.09,NNW,345,0.0,0.0,68,0.00,,,0.00,,2013-04-03 11:12:00,
2013-04-03 07:23:00,39.0,30.0,30.10,NNW,345,0.0,0.0,69,0.00,,,0.00,,2013-04-03 11:23:00,
2013-04-03 07:32:00,39.0,29.0,30.11,NNW,345,0.0,0.0,66,0.00,,,0.00,,2013-04-03 11:32:00,
2013-04-03 07:42:00,39.0,29.0,30.11,NNW,345,0.0,0.0,66,0.00,,,0.00,,2013-04-03 11:42:00,
2013-04-03 07:53:00,40.0,31.0,30.11,NNW,345,0.0,0.0,70,0.00,,,0.00,,2013-04-03 11:53:00,
2013-04-03 08:02:00,40.0,30.0,30.12,NNW,345,0.0,0.0,68,0.00,,,0.00,,2013-04-03 12:02:00,
2013-04-03 08:13:00,40.0,30.0,30.12,NNW,345,0.0,0.0,68,0.00,,,0.00,,2013-04-03 12:13:00,
2013-04-03 08:22:00,40.0,31.0,30.12,NNW,345,0.0,0.0,69,0.00,,,0.00,,2013-04-03 12:22:00,
2013-04-03 08:33:00,40.0,31.0,30.13,NNW,345,0.0,0.0,69,0.00,,,0.00,,2013-04-03 12:33:00,
2013-04-03 08:42:00,40.0,31.0,30.13,NNW,345,0.0,0.0,69,0.00,,,0.00,,2013-04-03 12:42:00,
2013-04-03 08:52:00,41.0,29.0,30.13,NNW,345,0.0,0.0,63,0.00,,,0.00,,2013-04-03 12:52:00,
2013-04-03 09:02:00,41.0,29.0,30.13,NNW,345,0.0,0.0,62,0.00,,,0.00,,2013-04-03 13:02:00,
2013-04-03 09:12:00,41.0,29.0,30.13,NNW,345,0.0,0.0,62,0.00,,,0.00,,2013-04-03 13:12:00,
2013-04-03 09:22:00,42.0,28.0,30.12,NNW,345,0.0,1.0,57,0.00,,,0.00,,2013-04-03 13:22:00,
2013-04-03 09:32:00,43.0,28.0,30.12,NNW,345,0.0,1.0,54,0.00,,,0.00,,2013-04-03 13:32:00,
2013-04-03 09:42:00,43.0,28.0,30.12,NNW,345,0.0,1.0,54,0.00,,,0.00,,2013-04-03 13:42:00,
2013-04-03 09:52:00,43.0,27.0,30.12,NNW,345,0.0,1.0,52,0.00,,,0.00,,2013-04-03 13:52:00,
2013-04-03 10:02:00,44.0,27.0,30.13,NNW,345,0.0,1.0,51,0.00,,,0.00,,2013-04-03 14:02:00,
2013-04-03 10:13:00,44.0,27.0,30.13,NNW,345,0.0,1.0,51,0.00,,,0.00,,2013-04-03 14:13:00,
2013-04-03 10:22:00,45.0,27.0,30.12,NNW,345,0.0,3.0,50,0.00,,,0.00,,2013-04-03 14:22:00,
2013-04-03 10:32:00,46.0,29.0,30.12,NNW,335,0.0,3.0,51,0.00,,,0.00,,2013-04-03 14:32:00,
2013-04-03 10:42:00,46.0,29.0,30.12,NNW,335,0.0,3.0,51,0.00,,,0.00,,2013-04-03 14:42:00,
2013-04-03 10:52:00,47.0,29.0,30.12,NE,43,1.0,4.0,50,0.00,,,0.00,,2013-04-03 14:52:00,
2013-04-03 11:02:00,48.0,30.0,30.13,NW,326,0.0,2.0,50,0.00,,,0.00,,2013-04-03 15:02:00,
2013-04-03 11:12:00,48.0,30.0,30.13,NW,326,0.0,2.0,50,0.00,,,0.00,,2013-04-03 15:12:00,
2013-04-03 11:23:00,49.0,31.0,30.13,NNW,329,0.0,2.0,50,0.00,,,0.00,,2013-04-03 15:23:00,
2013-04-03 11:33:00,51.0,32.0,30.13,NNE,15,2.0,5.0,48,0.00,,,0.00,,2013-04-03 15:33:00,
2013-04-03 11:43:00,51.0,32.0,30.13,NNE,15,2.0,5.0,48,0.00,,,0.00,,2013-04-03 15:43:00,
2013-04-03 11:53:00,53.0,33.0,30.12,ESE,117,2.0,5.0,46,0.00,,,0.00,,2013-04-03 15:53:00,
2013-04-03 12:03:00,54.0,32.0,30.12,West,281,1.0,5.0,43,0.00,,,0.00,,2013-04-03 16:03:00,
2013-04-03 12:13:00,54.0,32.0,30.12,West,281,1.0,5.0,43,0.00,,,0.00,,2013-04-03 16:13:00,
2013-04-03 12:24:00,55.0,31.0,30.12,NW,315,0.0,2.0,39,0.00,,,0.00,,2013-04-03 16:24:00,
2013-04-03 12:33:00,56.0,33.0,30.12,NNW,336,0.0,3.0,41,0.00,,,0.00,,2013-04-03 16:33:00,
2013-04-03 12:43:00,56.0,33.0,30.12,NNW,336,0.0,3.0,41,0.00,,,0.00,,2013-04-03 16:43:00,
2013-04-03 12:53:00,57.0,32.0,30.12,NW,306,2.0,3.0,39,0.00,,,0.00,,2013-04-03 16:53:00,
2013-04-03 13:03:00,58.0,31.0,30.12,West,281,2.0,6.0,36,0.00,,,0.00,,2013-04-03 17:03:00,
2013-04-03 13:14:00,58.0,31.0,30.12,West,281,2.0,6.0,36,0.00,,,0.00,,2013-04-03 17:14:00,
2013-04-03 13:23:00,58.0,31.0,30.11,West,269,2.0,5.0,36,0.00,,,0.00,,2013-04-03 17:23:00,
2013-04-03 13:33:00,59.0,32.0,30.11,West,264,0.0,4.0,36,0.00,,,0.00,,2013-04-03 17:33:00,
2013-04-03 13:46:00,59.0,32.0,30.11,West,264,0.0,4.0,36,0.00,,,0.00,,2013-04-03 17:46:00,
2013-04-03 13:54:00,59.0,32.0,30.11,West,259,1.0,3.0,36,0.00,,,0.00,,2013-04-03 17:54:00,
2013-04-03 14:02:00,59.0,33.0,30.10,West,277,0.0,6.0,37,0.00,,,0.00,,2013-04-03 18:02:00,
2013-04-03 14:13:00,59.0,33.0,30.10,West,277,0.0,6.0,37,0.00,,,0.00,,2013-04-03 18:13:00,
2013-04-03 14:23:00,60.0,33.0,30.10,NE,40,0.0,5.0,36,0.00,,,0.00,,2013-04-03 18:23:00,
2013-04-03 14:33:00,60.0,33.0,30.11,North,5,0.0,6.0,36,0.00,,,0.00,,2013-04-03 18:33:00,
2013-04-03 14:43:00,60.0,33.0,30.11,North,5,0.0,6.0,36,0.00,,,0.00,,2013-04-03 18:43:00,
2013-04-03 14:52:00,60.0,34.0,30.10,West,273,3.0,4.0,37,0.00,,,0.00,,2013-04-03 18:52:00,
2013-04-03 15:03:00,59.0,33.0,30.10,WSW,245,1.0,5.0,37,0.00,,,0.00,,2013-04-03 19:03:00,
2013-04-03 15:12:00,59.0,33.0,30.10,WSW,245,1.0,5.0,37,0.00,,,0.00,,2013-04-03 19:12:00,
2013-04-03 15:22:00,59.0,33.0,30.11,SW,233,0.0,5.0,37,0.00,,,0.00,,2013-04-03 19:22:00,
2013-04-03 15:32:00,60.0,32.0,30.10,NNW,327,0.0,3.0,35,0.00,,,0.00,,2013-04-03 19:32:00,
2013-04-03 15:42:00,60.0,32.0,30.10,NNW,327,0.0,3.0,35,0.00,,,0.00,,2013-04-03 19:42:00,
2013-04-03 15:52:00,60.0,34.0,30.10,NW,318,0.0,2.0,37,0.00,,,0.00,,2013-04-03 19:52:00,
2013-04-03 16:02:00,60.0,32.0,30.10,ENE,70,2.0,4.0,35,0.00,,,0.00,,2013-04-03 20:02:00,
2013-04-03 16:12:00,60.0,32.0,30.10,ENE,70,2.0,4.0,35,0.00,,,0.00,,2013-04-03 20:12:00,
2013-04-03 16:23:00,60.0,32.0,30.09,ENE,62,1.0,3.0,35,0.00,,,0.00,,2013-04-03 20:23:00,
2013-04-03 16:33:00,60.0,34.0,30.09,NW,309,1.0,4.0,37,0.00,,,0.00,,2013-04-03 20:33:00,
2013-04-03 16:42:00,60.0,34.0,30.09,NW,309,1.0,4.0,37,0.00,,,0.00,,2013-04-03 20:42:00,
2013-04-03 16:53:00,60.0,34.0,30.08,NNW,331,1.0,3.0,37,0.00,,,0.00,,2013-04-03 20:53:00,
2013-04-03 17:02:00,60.0,34.0,30.08,NNE,22,0.0,3.0,37,0.00,,,0.00,,2013-04-03 21:02:00,
2013-04-03 17:12:00,60.0,34.0,30.08,NNE,22,0.0,3.0,37,0.00,,,0.00,,2013-04-03 21:12:00,
2013-04-03 17:22:00,60.0,34.0,30.08,NW,309,0.0,3.0,38,0.00,,,0.00,,2013-04-03 21:22:00,
2013-04-03 17:33:00,60.0,34.0,30.08,NW,309,0.0,1.0,38,0.00,,,0.00,,2013-04-03 21:33:00,
2013-04-03 17:42:00,60.0,34.0,30.08,NW,309,0.0,1.0,38,0.00,,,0.00,,2013-04-03 21:42:00,
2013-04-03 17:52:00,60.0,35.0,30.08,NW,326,0.0,4.0,39,0.00,,,0.00,,2013-04-03 21:52:00,
2013-04-03 18:02:00,59.0,35.0,30.06,NW,317,0.0,4.0,40,0.00,,,0.00,,2013-04-03 22:02:00,
2013-04-03 18:13:00,59.0,35.0,30.06,NW,317,0.0,4.0,40,0.00,,,0.00,,2013-04-03 22:13:00,
2013-04-03 18:22:00,59.0,35.0,30.06,NW,317,0.0,1.0,40,0.00,,,0.00,,2013-04-03 22:22:00,
2013-04-03 18:33:00,59.0,35.0,30.06,NW,317,0.0,1.0,41,0.00,,,0.00,,2013-04-03 22:33:00,
2013-04-03 18:42:00,59.0,35.0,30.06,NW,317,0.0,1.0,41,0.00,,,0.00,,2013-04-03 22:42:00,
2013-04-03 18:52:00,58.0,33.0,30.06,NNW,348,0.0,4.0,38,0.00,,,0.00,,2013-04-03 22:52:00,
2013-04-03 19:02:00,57.0,32.0,30.06,NW,325,0.0,0.0,39,0.00,,,0.00,,2013-04-03 23:02:00,
2013-04-03 19:12:00,57.0,32.0,30.06,NW,325,0.0,0.0,39,0.00,,,0.00,,2013-04-03 23:12:00,
2013-04-03 19:22:00,56.0,31.0,30.06,NW,325,0.0,0.0,39,0.00,,,0.00,,2013-04-03 23:22:00,
2013-04-03 19:32:00,56.0,33.0,30.06,NW,325,0.0,0.0,42,0.00,,,0.00,,2013-04-03 23:32:00,
2013-04-03 19:43:00,56.0,33.0,30.06,NW,325,0.0,0.0,42,0.00,,,0.00,,2013-04-03 23:43:00,
2013-04-03 19:54:00,55.0,33.0,30.07,NW,325,0.0,0.0,44,0.00,,,0.00,,2013-04-03 23:54:00,
2013-04-03 20:03:00,54.0,35.0,30.08,NW,325,0.0,0.0,48,0.00,,,0.00,,2013-04-04 00:03:00,
2013-04-03 20:12:00,54.0,35.0,30.08,NW,325,0.0,0.0,48,0.00,,,0.00,,2013-04-04 00:12:00,
2013-04-03 20:22:00,53.0,35.0,30.09,NW,325,0.0,0.0,50,0.00,,,0.00,,2013-04-04 00:22:00,
2013-04-03 20:32:00,53.0,35.0,30.09,NW,325,0.0,0.0,50,0.00,,,0.00,,2013-04-04 00:32:00,
2013-04-03 20:43:00,53.0,35.0,30.09,NW,325,0.0,0.0,50,0.00,,,0.00,,2013-04-04 00:43:00,
2013-04-03 20:52:00,52.0,32.0,30.09,SSE,162,2.0,5.0,46,0.00,,,0.00,,2013-04-04 00:52:00,
2013-04-03 21:02:00,53.0,31.0,30.09,SW,214,4.0,8.0,43,0.00,,,0.00,,2013-04-04 01:02:00,
2013-04-03 21:12:00,53.0,31.0,30.09,SW,214,4.0,8.0,43,0.00,,,0.00,,2013-04-04 01:12:00,
2013-04-03 21:22:00,53.0,32.0,30.09,SW,236,3.0,6.0,44,0.00,,,0.00,,2013-04-04 01:22:00,
2013-04-03 21:32:00,52.0,31.0,30.10,SW,222,0.0,4.0,44,0.00,,,0.00,,2013-04-04 01:32:00,
2013-04-03 21:43:00,52.0,31.0,30.10,SW,222,0.0,4.0,44,0.00,,,0.00,,2013-04-04 01:43:00,
2013-04-03 21:52:00,52.0,31.0,30.10,SW,215,0.0,7.0,44,0.00,,,0.00,,2013-04-04 01:52:00,
2013-04-03 22:02:00,51.0,30.0,30.10,NE,38,1.0,5.0,44,0.00,,,0.00,,2013-04-04 02:02:00,
2013-04-03 22:12:00,51.0,30.0,30.10,NE,38,1.0,5.0,44,0.00,,,0.00,,2013-04-04 02:12:00,
2013-04-03 22:22:00,51.0,30.0,30.11,WSW,242,1.0,3.0,44,0.00,,,0.00,,2013-04-04 02:22:00,
2013-04-03 22:32:00,51.0,31.0,30.11,West,263,0.0,3.0,46,0.00,,,0.00,,2013-04-04 02:32:00,
2013-04-03 22:42:00,51.0,31.0,30.11,West,263,0.0,3.0,46,0.00,,,0.00,,2013-04-04 02:42:00,
2013-04-03 22:53:00,51.0,31.0,30.11,West,263,0.0,3.0,46,0.00,,,0.00,,2013-04-04 02:53:00,
2013-04-03 23:02:00,50.0,30.0,30.12,NE,38,0.0,0.0,46,0.00,,,0.00,,2013-04-04 03:02:00,
2013-04-03 23:12:00,50.0,30.0,30.12,NE,38,0.0,0.0,46,0.00,,,0.00,,2013-04-04 03:12:00,
2013-04-03 23:22:00,50.0,30.0,30.11,NE,38,0.0,1.0,46,0.00,,,0.00,,2013-04-04 03:22:00,
2013-04-03 23:33:00,49.0,31.0,30.10,NE,38,0.0,1.0,50,0.00,,,0.00,,2013-04-04 03:33:00,
2013-04-03 23:45:00,49.0,31.0,30.10,NE,38,0.0,1.0,50,0.00,,,0.00,,2013-04-04 03:45:00,
2013-04-03 23:53:00,49.0,31.0,30.10,NE,38,0.0,1.0,49,0.00,,,0.00,,2013-04-04 03:53:00,